Weather reports worldwide

Advertisment
Edinburgh/Gogarbank, United Kingdom (3166): temperature & dewpoint: 10.08.2018 12:00:00 - 16.08.2018 12:00:00 (BST)Edinburgh/Gogarbank, United Kingdom (3166): temperature -20cm & temperature -100cm: 10.08.2018 12:00:00 - 16.08.2018 12:00:00 (BST)Edinburgh/Gogarbank, United Kingdom (3166): wind speed & gusts: 10.08.2018 12:00:00 - 16.08.2018 12:00:00 (BST)Edinburgh/Gogarbank, United Kingdom (3166): wind direction: 10.08.2018 12:00:00 - 16.08.2018 12:00:00 (BST)Edinburgh/Gogarbank, United Kingdom (3166): reduced air pressure: 10.08.2018 12:00:00 - 16.08.2018 12:00:00 (BST)Edinburgh/Gogarbank, United Kingdom (3166): visibility: 10.08.2018 12:00:00 - 16.08.2018 12:00:00 (BST)Edinburgh/Gogarbank, United Kingdom (3166): sunshine duration: 10.08.2018 12:00:00 - 16.08.2018 12:00:00 (BST)Edinburgh/Gogarbank, United Kingdom (3166): precipitation: 10.08.2018 12:00:00 - 16.08.2018 12:00:00 (BST)
Date & Time tt [°C] td [°C] tt -20cm [°C] tt -100cm [°C] ff [km/h] ff [kn] fx [km/h] fx [kn] dd ppp [hPa] vv [km] sd [min] rr [mm]
16.08.2018 12:00:00 14,7 11,2 - - 18 10 - - SW 1005,6 10 18 0,2
16.08.2018 11:00:00 13,2 10,7 - - 16 9 - - SW 1005,6 11 30 0,0
16.08.2018 10:00:00 13,6 11,7 16,7 15,2 13 7 - - SW 1005,4 25 18 0,0
16.08.2018 09:00:00 14,3 10,3 - - 26 14 - - WSW 1005,3 24 60 0,0
16.08.2018 08:00:00 12,6 9,9 - - 18 10 - - SW 1005,1 26 60 0,0
16.08.2018 07:00:00 11,5 9,5 - - 15 8 - - SSW 1005,1 22 18 0,0
16.08.2018 06:00:00 10,9 9,3 - - 13 7 - - SW 1004,8 19 0 0,2
16.08.2018 05:00:00 11,4 10,1 - - 8 4 - - SW 1004,5 24 0 0,0
16.08.2018 04:00:00 12,2 11,0 - - 9 5 - - W 1004,6 24 0 0,2
16.08.2018 03:00:00 13,8 11,7 - - 11 6 - - WSW 1004,4 35 0 0,0
16.08.2018 02:00:00 14,3 11,4 - - 15 8 - - SW 1004,4 35 0 0,0
16.08.2018 01:00:00 15,1 12,5 - - 15 8 - - SW 1004,5 30 - 0,0
16.08.2018 00:00:00 16,0 11,9 - - 15 8 - - SW 1004,6 40 0 0,0
15.08.2018 23:00:00 15,9 11,2 - - 13 7 - - SW 1004,6 45 0 0,0
15.08.2018 22:00:00 16,2 11,4 - - 15 8 - - SSW 1005,0 50 0 0,0
15.08.2018 21:00:00 16,5 12,9 - - 13 7 - - SW 1005,3 35 0 0,0
15.08.2018 20:00:00 16,5 13,4 - - 11 6 - - SW 1005,2 30 0 0,2
15.08.2018 19:00:00 18,2 12,8 - - 9 5 - - SW 1005,3 35 0 0,0
15.08.2018 18:00:00 19,0 12,4 - - 18 10 - - WSW 1005,7 40 6 0,0
15.08.2018 17:00:00 19,5 12,7 - - 26 14 48 26 WSW 1006,1 35 12 0,0
15.08.2018 16:00:00 20,0 12,9 - - 24 13 46 25 WSW 1006,0 40 24 0,0
15.08.2018 15:00:00 21,0 12,5 - - 28 15 52 28 W 1006,3 35 48 0,0
15.08.2018 14:00:00 21,4 13,6 - - 24 13 50 27 WSW 1006,4 35 36 0,0
15.08.2018 13:00:00 19,9 13,5 - - 26 14 46 25 WSW 1007,0 40 42 0,0
15.08.2018 12:00:00 17,4 15,9 - - 18 10 - - WSW 1007,6 24 0 0,2
15.08.2018 11:00:00 19,8 15,0 - - 24 13 46 25 SW 1007,3 21 42 0,0
15.08.2018 10:00:00 19,0 15,3 16,5 15,2 26 14 - - SW 1007,5 45 30 0,0
15.08.2018 09:00:00 17,8 15,3 - - 18 10 - - SW 1007,9 29 6 0,0
15.08.2018 08:00:00 17,2 15,1 - - 21 11 - - SW 1008,0 45 0 0,0
15.08.2018 07:00:00 16,6 15,1 - - 16 9 - - SW 1008,2 35 0 0,0
15.08.2018 06:00:00 16,7 15,4 - - 16 9 - - SW 1008,3 26 0 0,0
15.08.2018 05:00:00 16,7 15,7 - - 16 9 - - SW 1008,4 30 0 0,2
15.08.2018 04:00:00 17,3 15,4 - - 21 11 - - SW 1008,8 55 0 0,0
15.08.2018 03:00:00 17,3 15,5 - - 18 10 - - SW 1009,1 24 0 0,0
15.08.2018 02:00:00 16,8 15,7 - - 15 8 - - SW 1009,4 - 0 0,0
15.08.2018 01:00:00 15,8 15,0 - - 8 4 - - WSW 1010,1 9 - 0,0
15.08.2018 00:00:00 15,7 14,5 - - 9 5 - - WSW 1010,5 35 0 0,0
14.08.2018 23:00:00 15,7 14,4 - - 11 6 - - W 1010,8 40 0 0,0
14.08.2018 22:00:00 16,3 14,2 - - 16 9 - - WSW 1010,8 50 0 0,0
14.08.2018 21:00:00 16,6 14,2 - - 18 10 - - WSW 1010,8 17 0 0,0
14.08.2018 20:00:00 17,5 15,0 - - 16 9 - - W 1010,4 16 12 0,0
14.08.2018 19:00:00 18,3 15,8 - - 18 10 - - W 1010,3 19 12 0,0
14.08.2018 18:00:00 18,4 15,5 - - 21 11 - - WSW 1010,3 23 6 0,0
14.08.2018 17:00:00 18,5 15,6 - - 18 10 - - WSW 1010,4 35 0 0,0
14.08.2018 16:00:00 18,3 15,4 - - 22 12 - - WSW 1010,3 29 0 0,0
14.08.2018 15:00:00 18,5 14,9 - - 21 11 - - WSW 1010,4 40 0 0,0
14.08.2018 14:00:00 18,2 15,4 - - 16 9 - - SW 1010,3 40 0 0,0
14.08.2018 13:00:00 16,4 15,7 - - 15 8 - - WSW 1010,5 20 0 1,4
14.08.2018 12:00:00 15,0 14,3 - - 13 7 - - SW 1010,8 12 0 1,0
14.08.2018 11:00:00 16,7 13,0 - - 21 11 - - W 1010,8 35 6 0,0
14.08.2018 10:00:00 15,8 13,6 16,2 15,2 18 10 - - WSW 1010,5 35 0 0,0
14.08.2018 09:00:00 15,1 13,4 - - 15 8 - - WSW 1010,5 30 6 0,0
14.08.2018 08:00:00 14,9 13,7 - - 9 5 - - WSW 1010,5 26 0 0,0
14.08.2018 07:00:00 14,0 13,0 - - 9 5 - - SW 1010,3 30 0 0,0
14.08.2018 06:00:00 13,5 12,8 - - 9 5 - - SW 1010,4 30 0 0,0
14.08.2018 05:00:00 13,5 12,6 - - 8 4 - - SSW 1010,3 27 0 0,0
14.08.2018 04:00:00 13,7 12,6 - - 15 8 - - WSW 1010,5 45 0 0,0
14.08.2018 03:00:00 13,6 12,6 - - 15 8 - - SW 1010,5 45 0 0,0
14.08.2018 02:00:00 13,2 12,1 - - 11 6 - - SW 1010,8 40 0 0,0
14.08.2018 01:00:00 14,1 12,8 - - 9 5 - - SW 1010,7 45 - 0,0
14.08.2018 00:00:00 14,8 14,3 - - 8 4 - - SW 1010,4 29 0 0,0
13.08.2018 23:00:00 14,6 14,5 - - 2 1 - - SSW 1010,1 6 0 0,2
13.08.2018 22:00:00 14,6 14,3 - - 2 1 - - SE 1009,8 3,1 0 0,0
13.08.2018 21:00:00 14,7 14,4 - - 4 2 - - E 1009,6 14 0 0,0
13.08.2018 20:00:00 14,8 14,5 - - 5 3 - - ENE 1009,4 16 0 0,0
13.08.2018 19:00:00 15,2 14,8 - - 5 3 - - NE 1009,1 14 0 0,0
13.08.2018 18:00:00 15,3 15,2 - - 5 3 - - ENE 1009,0 2,7 0 0,0
13.08.2018 17:00:00 15,4 15,1 - - 9 5 - - NE 1008,6 6 0 0,2
13.08.2018 16:00:00 15,1 15,0 - - 9 5 - - NNE 1008,7 4,2 0 0,0
13.08.2018 15:00:00 14,6 14,4 - - 11 6 - - N 1008,5 3,0 0 0,2
13.08.2018 14:00:00 15,3 15,1 - - 11 6 - - NNE 1008,2 2,2 0 0,2
13.08.2018 13:00:00 15,3 15,2 - - 5 3 - - N 1008,0 6 0 0,0
13.08.2018 12:00:00 15,1 15,0 - - 5 3 - - N 1007,8 3,9 0 0,2
13.08.2018 11:00:00 14,5 14,5 - - 4 2 - - NNW 1007,7 2,8 0 0,2
13.08.2018 10:00:00 14,2 14,2 16,0 15,2 4 2 - - N 1007,4 2,4 0 0,2
13.08.2018 09:00:00 14,1 14,1 - - 5 3 - - NNE 1007,3 1,7 0 0,4
13.08.2018 08:00:00 13,9 13,9 - - 4 2 - - NE 1007,0 3,0 0 0,4
13.08.2018 07:00:00 13,6 13,6 - - 8 4 - - NE 1006,6 1,6 0 0,6
13.08.2018 06:00:00 13,4 13,4 - - 5 3 - - NE 1006,4 1,3 0 0,2
13.08.2018 05:00:00 13,4 13,4 - - 4 2 - - ENE 1006,5 1,7 0 0,2
13.08.2018 04:00:00 13,3 13,3 - - 5 3 - - ENE 1006,5 1,5 0 0,2
13.08.2018 03:00:00 13,4 13,4 - - 8 4 - - ENE 1006,6 2,0 0 0,0
13.08.2018 02:00:00 13,6 13,6 - - 15 8 - - NE 1006,6 2,3 0 0,2
13.08.2018 01:00:00 13,7 13,7 - - 9 5 - - NE 1006,9 0,6 - 0,0
13.08.2018 00:00:00 13,6 13,6 - - 11 6 - - ENE 1007,1 2,5 0 0,0
12.08.2018 23:00:00 13,6 13,6 - - 15 8 - - ENE 1007,1 4,0 0 0,0
12.08.2018 22:00:00 13,6 13,6 - - 18 10 - - NE 1007,1 3,1 0 0,0
12.08.2018 21:00:00 13,6 13,6 - - 18 10 - - ENE 1007,2 3,1 0 0,0
12.08.2018 20:00:00 13,7 13,7 - - 21 11 - - ENE 1006,9 3,9 0 0,0
12.08.2018 19:00:00 13,8 13,8 - - 18 10 - - NE 1007,0 3,7 0 0,0
12.08.2018 18:00:00 14,1 14,1 - - 21 11 - - NE 1006,9 7 0 0,0
12.08.2018 17:00:00 14,3 14,3 - - 16 9 - - ENE 1007,2 14 0 0,0
12.08.2018 16:00:00 14,4 14,3 - - 22 12 - - ENE 1007,3 7 0 0,4
12.08.2018 15:00:00 14,8 14,7 - - 21 11 - - ENE 1007,4 4,3 0 0,2
12.08.2018 14:00:00 14,8 14,7 - - 15 8 - - ENE 1007,6 3,3 0 0,8
12.08.2018 13:00:00 14,4 14,2 - - 18 10 - - ENE 1007,7 5 0 1,0
12.08.2018 12:00:00 14,4 14,3 - - 22 12 - - ENE 1007,5 2,6 0 2,0
12.08.2018 11:00:00 14,3 14,3 - - 16 9 - - ENE 1007,6 7 0 1,0
12.08.2018 10:00:00 14,1 14,1 16,2 15,2 21 11 - - ENE 1007,6 3,8 0 0,0
12.08.2018 09:00:00 14,1 14,1 - - 13 7 - - ENE 1007,7 3,2 0 0,6
12.08.2018 08:00:00 13,9 13,9 - - 15 8 - - ENE 1007,7 3,1 0 0,6
12.08.2018 07:00:00 13,8 13,8 - - 15 8 - - ENE 1007,7 2,7 0 1,4
12.08.2018 06:00:00 13,5 13,4 - - 11 6 - - E 1007,9 2,3 0 0,4
12.08.2018 05:00:00 13,3 12,7 - - 9 5 - - ENE 1008,3 3,3 0 0,2
12.08.2018 04:00:00 13,2 12,3 - - 9 5 - - E 1009,0 22 0 0,2
12.08.2018 03:00:00 13,5 12,0 - - 9 5 - - E 1009,9 10 0 0,8
12.08.2018 02:00:00 15,2 10,6 - - 9 5 - - E 1010,6 40 0 0,0
12.08.2018 01:00:00 15,0 10,4 - - 11 6 - - E 1011,2 25 - 0,0
12.08.2018 00:00:00 15,5 9,7 - - 9 5 - - E 1012,0 40 0 0,0
11.08.2018 23:00:00 14,5 11,3 - - 4 2 - - NE 1012,6 30 0 0,0
11.08.2018 22:00:00 14,4 11,8 - - 5 3 - - NNE 1013,4 30 0 0,0
11.08.2018 21:00:00 15,6 10,7 - - 5 3 - - N 1013,8 30 0 0,0
11.08.2018 20:00:00 16,7 9,4 - - 5 3 - - ESE 1014,2 35 0 0,0
11.08.2018 19:00:00 17,0 8,4 - - 11 6 - - E 1014,7 40 0 0,0
11.08.2018 18:00:00 17,5 7,5 - - 13 7 - - ENE 1015,1 40 0 0,0
11.08.2018 17:00:00 18,5 8,7 - - 8 4 - - SSW 1015,6 25 0 0,0
11.08.2018 16:00:00 18,2 7,8 - - 5 3 - - SW 1016,3 30 0 0,0
11.08.2018 15:00:00 17,8 7,4 - - 13 7 - - WSW 1017,1 25 6 0,0
11.08.2018 14:00:00 18,3 7,6 - - 11 6 - - WSW 1017,4 26 6 0,0
11.08.2018 13:00:00 18,0 7,3 - - 13 7 - - WSW 1017,6 24 24 0,0
11.08.2018 12:00:00 16,3 6,9 - - 9 5 - - WSW 1018,3 30 24 0,0
11.08.2018 11:00:00 15,7 7,7 - - 13 7 - - SW 1018,6 24 30 0,0
11.08.2018 10:00:00 15,3 9,5 16,0 15,4 11 6 - - WSW 1018,8 17 48 0,0
11.08.2018 09:00:00 13,8 9,3 - - 15 8 - - WSW 1019,2 19 60 0,0
11.08.2018 08:00:00 11,5 9,2 - - 13 7 - - WSW 1019,3 15 54 0,0
11.08.2018 07:00:00 10,0 8,7 - - 13 7 - - WSW 1019,3 16 42 0,0
11.08.2018 06:00:00 8,4 7,2 - - 8 4 - - SSW 1018,8 25 0 0,0
11.08.2018 05:00:00 8,8 7,4 - - 8 4 - - SSW 1018,7 24 0 0,0
11.08.2018 04:00:00 9,2 7,8 - - 11 6 - - SW 1018,7 20 0 0,0
11.08.2018 03:00:00 9,3 7,8 - - 9 5 - - SW 1018,7 22 0 0,0
11.08.2018 02:00:00 9,8 7,9 - - 11 6 - - SSW 1018,5 22 0 0,0
11.08.2018 01:00:00 10,4 8,4 - - 13 7 - - SW 1018,4 20 - 0,0
11.08.2018 00:00:00 11,9 9,1 - - 15 8 - - WSW 1018,0 17 0 0,0
10.08.2018 23:00:00 12,8 10,1 - - 13 7 - - SW 1017,5 18 0 0,0
10.08.2018 22:00:00 12,3 10,3 - - 11 6 - - WSW 1017,0 16 0 0,0
10.08.2018 21:00:00 12,5 10,7 - - 11 6 - - SW 1016,2 14 12 0,0
10.08.2018 20:00:00 14,5 9,9 - - 4 2 - - E 1015,6 45 24 0,0
10.08.2018 19:00:00 13,6 9,7 - - 13 7 - - SW 1015,1 21 6 0,0
10.08.2018 18:00:00 14,9 9,9 - - 15 8 - - W 1014,8 19 12 0,0
10.08.2018 17:00:00 16,1 8,9 - - 5 3 - - NW 1013,8 21 36 0,0
10.08.2018 16:00:00 14,7 9,2 - - 11 6 - - W 1013,7 19 6 0,0
10.08.2018 15:00:00 13,3 11,2 - - 13 7 - - WNW 1013,4 15 6 1,6
10.08.2018 14:00:00 15,1 9,7 - - 11 6 - - WSW 1013,0 5 0 0,0
10.08.2018 13:00:00 15,2 8,0 - - 13 7 - - WNW 1012,7 5 6 0,0
10.08.2018 12:00:00 14,4 9,4 - - 13 7 - - WNW 1012,5 35 0 0,0

tt = temperature
td = dewpoint
tt -20cm = temperature -20cm
tt -100cm = temperature -100cm
ff = wind speed
fx = gusts
dd = wind direction
ppp = reduced air pressure
vv = visibility
sd = sunshine duration
rr = precipitation

Next stations